sat.trackr.live / text

‹ back to catalog

STARLINK-33823

NORAD 63661 · 2025-083AD

PAYLOAD ACTIVE UNKNOWN

§ Identity

Operator
Country
US
Launch date
2025-04-25
Launch site
AFETR
Launch vehicle
Mass (kg)
RCS (m²)

Purposes: comms

External: N2YO · Heavens-Above · Gunter

§ Orbital elements

Epoch: 2026-09-20T12:41:01.418496Z

Period
94.27 min
Inclination
43.0032°
Eccentricity
0.0000882
Mean motion
15.27583238 rev/d
Perigee alt
482.4 km
Apogee alt
483.6 km
Semi-major
6,861.2 km
B*
1.8590e-4
RAAN
344.9741°
Arg perigee
267.9865°
Mean anomaly
92.0886°
Rev number
7,989

§ Raw data

STARLINK-338231 63661U 25083AD  26263.52848864  .00004857  00000+0  18590-3 0  99932 63661  43.0032 344.9741 0000882 267.9865  92.0886 15.27583238 79899

JSON: /api/v1/satellites/63661 · /tle

For live sub-satellite position, see the globe view (requires WebGL).

§ Visibility from observer

Set your observer location to see the next 7 days of passes ≥ 10°. The values pass through the URL so the page stays shareable.

No JS? Fill the form by hand. The geolocation button needs JavaScript.